Regional Weather Roundup
Issued by NWS Jackson, KY

Home | Current Version | Previous Version | Text Only | Print | Product List | Glossary Off
Versions: 1 2 3 4 5 6 7 8 9 10 11 12 13 14 15 16 17 18 19 20 21 22 23 24 25 26 27 28 29 30 31 32 33 34 35 36 37 38 39 40 41 42 43 44 45 46 47 48 49 50

000
ASUS43 KJKL 291211
RWRJKL

EAST KENTUCKY HOURLY WEATHER ROUNDUP
NATIONAL WEATHER SERVICE JACKSON KY
700 AM EST MON DEC 29 2014

NOTE: "FAIR" INDICATES FEW OR NO CLOUDS BELOW 12,000 FEET WITH
NO SIGNIFICANT WEATHER AND/OR OBSTRUCTIONS TO VISIBILITY.

* THESE REPORTS ARE NOT UNDER NWS QUALITY CONTROL AND MAY NOT
  REPORT WEATHER SUCH AS PRECIPITATION AND FOG.

KYZ079-080-083-085-087-088-110-112-115-119-120-291300
...EASTERN KENTUCKY...

CITY           SKY/WX    TMP DP  RH WIND       PRES   REMARKS
JACKSON        FOG       34  33  96 VRB3      30.13R VSB 3/4
6HR MIN TEMP:  34; 6HR MAX TEMP:  37; 6HR PCP:  0.01;

LONDON         CLOUDY    37  34  89 NE8       30.12S FOG     WCI  31
6HR MIN TEMP:  37; 6HR MAX TEMP:  38; 6HR PCP:  0.03;

SOMERSET*      CLOUDY    34  34 100 N6        30.15R FOG     WCI  29
MONTICELLO*    CLOUDY    37  36  96 N6        30.17R FOG     WCI  32
6HR MIN TEMP:  37; 6HR MAX TEMP:  39; 6HR PCP:  0.03;

MIDDLESBORO*   CLOUDY    41  40  97 NE7       30.11R
HARLAN APT*    CLOUDY    39  37  93 CALM      30.09S
HAZARD APT*    CLOUDY    36  36 100 CALM      30.12S FOG
BLACK MTN*       N/A     37  37 100 S3          N/A
PIKEVILLE APT* FOG       34  34 100 N6        30.12R VSB 1/4 WCI  29
BIG SANDY*     CLOUDY    35  35 100 N3        30.14S FOG
MOREHEAD APT*  CLOUDY    32  30  93 CALM      30.20R FOG
$$

KYZ035-036-041-042-044-050-067-078-099-291300
...CENTRAL KENTUCKY...

CITY           SKY/WX    TMP DP  RH WIND       PRES   REMARKS
MT STERLING*   CLOUDY    32  32 100 NE6       30.19S WCI  26
FLEMING/MASON* CLOUDY    30  28  93 NE7       30.21R WCI  23
DANVILLE*      CLOUDY    32  32 100 NE7       30.17R WCI  26
RICHMOND*      CLOUDY    32  32 100 N5        30.15R WCI  27
LEXINGTON      PTCLDY    30  28  92 NE9       30.17S WCI  22
6HR MIN TEMP:  29; 6HR MAX TEMP:  32;

FRANKFORT      CLOUDY    31  27  85 N6        30.19S WCI  25
6HR MIN TEMP:  30; 6HR MAX TEMP:  33;

$$

KYZ091>093-OHZ055-061-077-WVZ005-015-034-035-042-291300
...SOUTHERN OHIO/WEST VIRGINIA...

CITY           SKY/WX    TMP DP  RH WIND       PRES   REMARKS
COVINGTON      CLOUDY    30  23  75 N10       30.22S WCI  21
COLUMBUS       CLEAR     25  22  88 N7        30.23R WCI  17
DAYTON         CLEAR     22  20  92 N6        30.24R FOG     WCI  14
WILMINGTON     CLOUDY    27  24  89 N7        30.22R FOG     WCI  19
HUNTINGTON     CLOUDY    33  31  92 N3        30.17R
CHARLESTON     CLOUDY    36  32  85 NE3       30.15S
PINEVILLE*     CLOUDY    41  41 100 MISG      30.13S
BECKLEY        FOG       35  33  92 NE5       30.07F VSB 1/2 WCI  31
BLUEFIELD      FOG       40  37  89 CALM      30.06S VSB 1/2
$$

VAZ002-007-008-TNZ017-027-036-066-071-291300
...SOUTHWEST VIRGINIA/EAST TENNESSEE...

CITY           SKY/WX    TMP DP  RH WIND       PRES   REMARKS
WISE*          FOG       37  37 100 N7        30.07R VSB 1/4 WCI  32
JONESVILLE*    LGT RAIN  45  45 100 CALM      30.09R
ABINGDON*      CLOUDY    47  47 100 CALM      30.06R
BRISTOL        FOG       47  47 100 CALM      30.06R VSB 1/4
KNOXVILLE      LGT RAIN  45  44  97 N5        30.07R
OAK RIDGE      CLOUDY    45  43  93 CALM      30.09R
CROSSVILLE     CLOUDY    42  39  89 N3        30.08R FOG
NASHVILLE      FOG       37  36  93 N6        30.16R VSB 1   WCI  33
$$

...KEY TO REMARKS...
VSB - VISIBILITY IN MILES
WCI - WIND CHILL INDEX
HX  - HEAT INDEX

$$


USA.gov is the U.S. government's official web portal to all federal, state and local government web resources and services.